Terminal Aerodrome Forecast
Issued by NWS Albany, NY

Home | Current Version | Previous Version | Text Only | Print | Product List | Glossary On
Versions: 1 2 3 4 5 6 7 8 9 10 11 12 13 14 15 16 17 18 19 20 21 22 23 24 25 26 27 28 29 30 31 32 33 34 35
000
FTUS41 KALY 051722
TAFALB
TAF
KALB 051722Z 0518/0618 01008G14KT P6SM SCT025 OVC035
      TEMPO 0518/0520 BKN025 OVC035
     FM060500 36007KT P6SM SCT025 OVC035
     FM061600 03010G15KT P6SM VCSH BKN025 OVC035=

USA.gov is the U.S. government's official web portal to all federal, state and local government web resources and services.